Regional Weather Roundup
Issued by NWS Goodland, KS

Home | Current Version | Previous Version | Graphics & Text | Print | Product List | Glossary On
Versions: 1 2 3 4 5 6 7 8 9 10 11 12 13 14 15 16 17 18 19 20 21 22 23 24 25 26 27 28 29 30 31 32 33 34 35 36 37 38 39 40 41 42 43 44 45 46 47 48 49 50
000
ASUS43 KGLD 251108
RWRGLD

GOODLAND FORECAST AREA HOURLY WEATHER ROUNDUP
NATIONAL WEATHER SERVICE GOODLAND KS
400 AM MST SUN FEB 25 2018

...OFFICIAL OBSERVATIONS...

CITY           SKY/WX    TMP DP  RH WIND       PRES   REMARKS
GOODLAND KS    MOCLDY    22  11  62 SW10      29.87F WCI  11
HILL CITY KS   CLEAR     16  11  80 NW6       29.94F
IMPERIAL NEB   MOCLDY    27  14  58 SW13      29.86S WCI  16
MCCOOK NEB     CLOUDY    24  16  71 SW5       29.89S
AKRON CO       CLEAR     17   8  67 W12       29.81S WCI   4
BURLINGTON CO  MOCLDY    18  12  77 SW8       29.86F
LIMON CO       CLEAR      3   1  91 CALM      29.84S
$$

...UNOFFICIAL OBSERVATIONS...

CITY           SKY/WX    TMP DP  RH WIND       PRES   REMARKS
COLBY KS       MOCLDY    21  18  86 SW6       29.91S
NORTON KS      PTCLDY    19  10  68 W8        29.91
SHARON SPRINGS   N/A     13   7  76 CALM        N/A
KIT CARSON CO    N/A     14   9  81 CALM        N/A
$$



USA.gov is the U.S. government's official web portal to all federal, state and local government web resources and services.